STARLINK-4488 (53534 NORAD) Tracking and Keplerian Element Data

This shows tracking and keplerian element data for the satellite.

Feedback or suggestion? Click here.




ElementValue
Catalog53534
NameSTARLINK-4488
Epoch Orbit1427
Epoch Day324.81376456
Epoch Year2022
RAAN83.0094
Inclination53.2212
Eccentricity0.0002733
Argument of Perigee40.7272
Mean Anonmoly319.3924
Mean Motion15.08838185
Decay Rate-3.84E-06
L11 53534U 22101H 22324.81376456 -.00000384 00000+0 -60102-5 0 9999
L22 53534 53.2212 83.0094 0002733 40.7272 319.3924 15.08838185 14270



Live tracking and technical data element details for STARLINK-4488 (NORAD 53534). STARLINK-4488 can be tracked NOW for your location showing map with azimuth and elevation plus other details from your city location.







IsCatalogInMostPopularTable: catalog: 53534, numindb: 2
Update: records affected: 1



GetName: 53534 STARLINK-4488

Hit Count: updated at: Thu, 08 Dec 2022 19:51:38 GMT